Regional Weather Roundup
Issued by NWS Cleveland, OH

Home | Current Version | Previous Version | Text Only | Print | Product List | Glossary Off
Versions: 1 2 3 4 5 6 7 8 9 10 11 12 13 14 15 16 17 18 19 20 21 22 23 24 25 26 27 28 29 30 31 32 33 34 35 36 37 38 39 40 41 42 43 44 45 46 47 48 49 50

000
ASUS41 KCLE 270900
RWRCLE
OHIO REGIONAL WEATHER ROUNDUP
NATIONAL WEATHER SERVICE WILMINGTON, OH
400 AM EST MON FEB 27 2017

NOTE: "FAIR" INDICATES FEW OR NO CLOUDS BELOW 12,000 FEET WITH NO
SIGNIFICANT WEATHER AND/OR OBSTRUCTIONS TO VISIBILITY.

OHZ001>008-015>018-024>027-034-035-043-044-271000-
   NORTHWEST OHIO

CITY           SKY/WX    TMP DP  RH WIND       PRES   REMARKS
DEFIANCE       FAIR      30  22  72 SW3       30.15S
FINDLAY        FAIR      34  22  61 S10       30.15S WCI  26
TOLEDO EXPRESS FAIR      33  23  66 SW7       30.15R WCI  27
TOLEDO EXEC    FAIR      32  23  69 SW7       30.16R WCI  26
LIMA           FAIR      37  22  54 S9        30.16S
$$

OHZ009>014-019>023-028>033-038-089-271000-
   NORTHEAST OHIO

CITY           SKY/WX    TMP DP  RH WIND       PRES   REMARKS
CLE-HOPKINS    MOCLDY    37  18  46 S9        30.19S
CLE-LAKEFRONT  FAIR      40  17  39 S13       30.16F
CUY CO. ARPT   NOT AVBL
LORAIN-ELYRIA  MOCLDY    33  19  56 S9        30.18R WCI  25
ASHTABULA      FAIR      33  18  53 SW8       30.18S WCI  26
AKRON-CANTON   FAIR      34  17  50 S7        30.19  WCI  28
WOOSTER        NOT AVBL
MANSFIELD      CLOUDY    34  20  56 S8        30.17S WCI  27
YOUNGSTOWN     FAIR      33  15  47 S6        30.19S WCI  28
$$

OHZ042-051>053-060>062-070>072-077>081-271000-
  SOUTHWEST OHIO

CITY           SKY/WX    TMP DP  RH WIND       PRES   REMARKS
CINC-COVINGTON CLOUDY    44  22  41 S7        30.19S
CINC-LUNKEN    CLOUDY    38  30  73 CALM      30.23R
HAMILTON       CLOUDY    40  26  57 CALM      30.22R
DAYTON         NOT AVBL
WRIGHT-PAT AFB CLOUDY    41  19  42 S6        30.20R
DAYTON GENERAL CLOUDY    39  24  55 S5        30.19R
WILMINGTON     CLOUDY    38  24  57 S5        30.21R
$$

OHZ036-037-039>041-045>050-054>059-063>069-073>076-082>088-271000-
  CENTRAL AND SOUTHEAST OHIO

CITY           SKY/WX    TMP DP  RH WIND       PRES   REMARKS
COLUMBUS       CLOUDY    44  20  38 S5        30.20F
OSU AIRPORT    CLOUDY    41  23  48 SW7       30.20S
BOLTON FIELD   NOT AVBL
RICKENBACK AFB NOT AVBL
NEWARK         CLOUDY    36  24  62 CALM      30.21S
MARION         CLOUDY    38  22  52 S12       30.18S
LANCASTER      CLOUDY    39  26  59 SE3       30.22S
ZANESVILLE     CLOUDY    37  19  48 S6        30.22S
NEW PHILLY     CLOUDY    33  22  63 SE6       30.23S WCI  28
$$




USA.gov is the U.S. government's official web portal to all federal, state and local government web resources and services.